Regional Weather Roundup
Issued by NWS

Home | Current Version | Previous Version | Text Only | Print | Product List | Glossary Off
Versions: 1 2 3 4 5 6 7 8 9 10 11 12 13 14 15 16 17 18 19 20 21 22 23 24 25 26 27 28 29 30 31 32 33 34 35 36 37 38 39 40 41 42 43 44 45 46 47 48 49 50

000
ASUS43 KOAX 271710
RWRNE

WEATHER ROUNDUP FOR NEBRASKA
NATIONAL WEATHER SERVICE OMAHA NE
1100 AM CST SAT DEC 27 2014

NOTES: SATELLITE DATA IS BEING USED TO AUGMENT CLOUD COVER ABOVE
       12000 FEET.
       "FAIR" INDICATES FEW OR NO CLOUDS BELOW 12,000 FEET WITH NO
       SIGNIFICANT WEATHER AND/OR OBSTRUCTIONS TO VISIBILITY.

  * THESE STATIONS DO NOT REPORT WEATHER SUCH AS RAIN...SNOW OR FOG.

NEZ001>004-019>022-054>056-271800-
NEBRASKA PANHANDLE

CITY           SKY/WX    TMP DP  RH WIND       PRES   REMARKS
SCOTTSBLUFF    SUNNY      8   4  83 NW8       30.18S WCI  -4
ALLIANCE       SUNNY     10   4  76 W9        30.16R WCI  -3
CHADRON        SUNNY     11   7  84 W6        30.16F WCI   1
KIMBALL        SUNNY     13   4  66 W14       30.13S WCI  -2
SIDNEY         SUNNY     13   4  67 W10       30.18R WCI   0
$$

NEZ057>060-069>072-079>082-271800-
SOUTHWEST NEBRASKA

CITY           SKY/WX    TMP DP  RH WIND       PRES   REMARKS
NORTH PLATTE   SUNNY     14  12  92 SW3       30.25S
IMPERIAL       SUNNY     12   6  77 W8        30.25R WCI   0
LEXINGTON      SUNNY     16  12  86 W7        30.27S WCI   6
MCCOOK         SUNNY     16  10  77 W10       30.28S WCI   4
OGALLALA       SUNNY      9   4  82 W10       30.24S WCI  -5
$$

NEZ005>010-023>029-035>040-094-271800-
NORTH CENTRAL NEBRASKA

CITY           SKY/WX    TMP DP  RH WIND       PRES   REMARKS
VALENTINE      SUNNY     17   9  70 W8        30.20R WCI   7
AINSWORTH      SUNNY     14   9  81 SW5       30.20R WCI   6
BROKEN BOW     SUNNY     16   9  74 W9        30.24R WCI   4
O`NEILL        SUNNY     13  10  90 CALM      30.22S
ORD            SUNNY     16   9  74 W8        30.24S WCI   5
THEDFORD       SUNNY     19  13  79 W6        30.21S WCI  11
$$

NEZ041-046>049-061>064-073>077-083>087-271800-
SOUTH CENTRAL NEBRASKA

CITY           SKY/WX    TMP DP  RH WIND       PRES   REMARKS
GRAND ISLAND   SUNNY     18  12  77 NW12      30.27R WCI   5
AURORA         SUNNY     19  15  81 NW12      30.26R WCI   7
HASTINGS       SUNNY     18  12  77 W10       30.26R WCI   6
HEBRON         SUNNY     23  17  76 NW7       30.30R WCI  15
HOLDREGE       SUNNY     17  11  79 W8        30.26S WCI   6
KEARNEY *      SUNNY     18  12  79 W13       30.26S WCI   4
YORK           SUNNY     19  16  86 NW13      30.26S WCI   7
$$

NEZ011>018-030>034-042>045-271800-
NORTHEAST NEBRASKA

CITY           SKY/WX    TMP DP  RH WIND       PRES   REMARKS
NORFOLK        SUNNY     17  12  80 W10       30.23R WCI   5
ALBION         SUNNY     18  11  75 W3        30.24S
BLAIR          SUNNY     22  17  78 NW12      30.25R WCI  11
COLUMBUS *     SUNNY     18   9  68 W9        30.27R WCI   6
FREMONT        SUNNY     22  17  78 NW10      30.27S WCI  12
TEKAMAH        SUNNY     22  14  71 NW13      30.28R WCI  10
WAYNE          SUNNY     17  12  79 NW12      30.25R WCI   5
$$

NEZ050>053-065>068-078-088>093-271800-
SOUTHEAST NEBRASKA

CITY           SKY/WX    TMP DP  RH WIND       PRES   REMARKS
LINCOLN        SUNNY     23  16  74 NW10      30.30R WCI  12
OMAHA EPPLEY   PTSUNNY   24  18  77 NW13      30.28S WCI  12
BEATRICE       SUNNY     24  18  77 NW13      30.29S WCI  12
FALLS CITY     CLOUDY    26  19  74 NW10      30.27S WCI  16
NEBRASKA CITY  MOSUNNY   24  20  82 NW10      30.26S WCI  14
PLATTSMOUTH    PTSUNNY   24  19  80 NW12      30.25F WCI  13
$$

NEZ044-045-051>053-067-271800-
OMAHA AREA

CITY           SKY/WX    TMP DP  RH WIND       PRES   REMARKS
OMAHA EPPLEY   PTSUNNY   24  18  77 NW13      30.28S WCI  12
BLAIR          SUNNY     22  17  78 NW12      30.25R WCI  11
FREMONT        SUNNY     22  17  78 NW10      30.27S WCI  12
MILLARD        SUNNY     24  17  75 NW12      30.26F WCI  12
OFFUTT AFB     SUNNY     24  18  78 NW12      30.26R WCI  13
PLATTSMOUTH    PTSUNNY   24  19  80 NW12      30.25F WCI  13
WAHOO          FAIR      22  15  74 NW10      30.27R WCI  11
$$



USA.gov is the U.S. government's official web portal to all federal, state and local government web resources and services.